Location: Boston
(42.3580°N, 71.0600°W)
Time: 16:51:56
(UTC-04:00)

Envisat - Pass Details

Date: 12 October 2017
Orbit: 764 x 766 km, 98.2° (Epoch: 17 October)

Event Time Altitude Azimuth Distance (km) Brightness Sun altitude
Exits shadow 19:53:45 40° 72° (ENE) 1,121 3.4 -20.5°
Maximum altitude 19:53:49 40° 69° (ENE) 1,120 3.4 -20.6°
Drops below altitude 10° 19:58:32 10° 2° (N) 2,310 5.6 -21.4°
Sets 20:00:57 0° 355° (N) 3,241 6.4 -21.9°
